Location: Lindau-Bodensee
(47.5564°N, 9.6944°E)
Time: 20:58:49
(UTC+02:00)

ISS - Visible Passes

Search period start: 16 May 2021 00:00
Search period end: 26 May 2021 00:00
Orbit: 417 x 422 km, 51.6° (Epoch: 16 May)

Date Brightness Start Highest point End Pass type
(mag) Time Alt. Az. Time Alt. Az. Time Alt. Az.
16 May -2.4 01:17:06 10° WNW 01:20:18 39° N 01:23:31 10° ENE visible
16 May -3.6 02:54:03 10° WNW 02:57:26 73° NNE 03:00:48 10° ESE visible
16 May -2.7 04:31:12 10° W 04:34:00 24° SW 04:36:48 10° SSE visible
16 May -3.8 22:52:18 10° WSW 22:55:40 84° NNW 22:59:03 10° ENE visible
17 May -2.4 00:29:32 10° WNW 00:32:44 40° N 00:35:58 10° ENE visible
17 May -3.1 02:06:35 10° WNW 02:09:56 56° NNE 02:13:16 10° E visible
17 May -3.3 03:43:31 10° WNW 03:46:40 37° SW 03:49:49 10° SSE visible
17 May -3.8 22:04:53 10° SW 22:08:13 69° SSE 22:11:35 10° ENE visible
17 May -2.5 23:41:57 10° W 23:45:11 43° N 23:48:27 10° ENE visible
18 May -2.7 01:19:07 10° WNW 01:22:24 46° NNE 01:22:53 42° NE visible
18 May -2.8 22:54:21 10° W 22:57:38 50° NNW 23:00:57 10° ENE visible
19 May -2.5 00:31:37 10° WNW 00:34:50 41° N 00:36:27 24° ENE visible
19 May -1.5 02:08:29 10° WNW 02:09:22 17° WNW 02:09:22 17° WNW visible
19 May -3.2 22:06:47 10° W 22:10:07 63° NNW 22:13:29 10° ENE visible
19 May -2.4 23:44:04 10° WNW 23:47:16 39° N 23:50:17 11° ENE visible
20 May -2.5 01:21:00 10° WNW 01:23:12 37° NW 01:23:12 37° NW visible
20 May -2.4 22:56:30 10° WNW 22:59:42 40° N 23:02:55 10° ENE visible
21 May -3.2 00:33:33 10° WNW 00:36:53 56° NNE 00:37:06 55° NE visible
21 May -2.5 22:08:53 10° W 22:12:08 43° N 22:15:22 10° ENE visible
21 May -2.8 23:46:03 10° WNW 23:49:20 46° NNE 23:51:03 24° ENE visible
22 May -1.6 01:22:54 10° WNW 01:23:59 19° WNW 01:23:59 19° WNW visible
22 May -2.5 22:58:33 10° WNW 23:01:46 41° N 23:05:00 10° E visible
23 May -3.1 00:35:24 10° WNW 00:37:58 48° WNW 00:37:58 48° WNW visible
23 May -2.4 22:10:59 10° WNW 22:14:11 39° N 22:17:24 10° ENE visible
23 May -3.7 23:47:56 10° WNW 23:51:18 74° NNE 23:51:59 52° E visible
24 May -3.2 23:00:26 10° WNW 23:03:47 56° NNE 23:06:01 19° E visible
25 May -1.9 00:37:22 10° WNW 00:38:56 22° W 00:38:56 22° W visible
25 May -2.8 22:12:56 10° WNW 22:16:13 46° NNE 22:19:30 10° E visible
25 May -3.6 23:49:48 10° WNW 23:53:00 55° SW 23:53:00 55° SW visible
